Year,Month,Day,Hour,Minute,Value (Times are PST for temperature in C)
2016,11,24,00,00,3.60
2016,11,24,00,01,3.60
2016,11,24,00,02,3.70
2016,11,24,00,03,3.70
2016,11,24,00,04,3.70
2016,11,24,00,05,3.80
2016,11,24,00,06,3.80
2016,11,24,00,07,3.80
2016,11,24,00,08,3.80
2016,11,24,00,09,3.80
2016,11,24,00,10,3.80
2016,11,24,00,11,3.80
2016,11,24,00,12,3.80
2016,11,24,00,13,3.80
2016,11,24,00,14,3.90
2016,11,24,00,15,3.90
2016,11,24,00,16,3.90
2016,11,24,00,17,4.00
2016,11,24,00,18,4.00
2016,11,24,00,19,4.10
2016,11,24,00,20,4.10
2016,11,24,00,21,4.10
2016,11,24,00,22,4.10
2016,11,24,00,23,4.10
2016,11,24,00,24,4.20
2016,11,24,00,25,4.20
2016,11,24,00,26,4.20
2016,11,24,00,27,4.20
2016,11,24,00,28,4.20
2016,11,24,00,29,4.20
2016,11,24,00,30,4.20
2016,11,24,00,31,4.20
2016,11,24,00,32,4.20
2016,11,24,00,33,4.20
2016,11,24,00,34,4.20
2016,11,24,00,35,4.20
2016,11,24,00,36,4.20
2016,11,24,00,37,4.10
2016,11,24,00,38,4.20
2016,11,24,00,39,4.20
2016,11,24,00,40,4.10
2016,11,24,00,41,4.10
2016,11,24,00,42,4.10
2016,11,24,00,43,4.10
2016,11,24,00,44,4.10
2016,11,24,00,45,4.10
2016,11,24,00,46,4.10
2016,11,24,00,47,4.10
2016,11,24,00,48,4.00
2016,11,24,00,49,4.00
2016,11,24,00,50,4.00
2016,11,24,00,51,4.00
2016,11,24,00,52,4.00
2016,11,24,00,53,4.00
2016,11,24,00,54,3.90
2016,11,24,00,55,3.90
2016,11,24,00,56,3.90
2016,11,24,00,57,3.90
2016,11,24,00,58,3.90
2016,11,24,00,59,3.90
2016,11,24,01,00,3.90
2016,11,24,01,01,3.80
2016,11,24,01,02,3.70
2016,11,24,01,03,3.70
2016,11,24,01,04,3.60
2016,11,24,01,05,3.50
2016,11,24,01,06,3.40
2016,11,24,01,07,3.40
2016,11,24,01,08,3.30
2016,11,24,01,09,3.30
2016,11,24,01,10,3.20
2016,11,24,01,11,3.20
2016,11,24,01,12,3.20
2016,11,24,01,13,3.20
2016,11,24,01,14,3.20
2016,11,24,01,15,3.10
2016,11,24,01,16,3.10
2016,11,24,01,17,3.10
2016,11,24,01,18,3.10
2016,11,24,01,19,3.10
2016,11,24,01,20,3.10
2016,11,24,01,21,3.10
2016,11,24,01,22,3.10
2016,11,24,01,23,3.10
2016,11,24,01,24,3.10
2016,11,24,01,25,3.10
2016,11,24,01,26,3.10
2016,11,24,01,27,3.10
2016,11,24,01,28,3.10
2016,11,24,01,29,3.10
2016,11,24,01,30,3.10
2016,11,24,01,31,3.10
2016,11,24,01,32,3.10
2016,11,24,01,33,3.10
2016,11,24,01,34,3.10
2016,11,24,01,35,3.10
2016,11,24,01,36,3.10
2016,11,24,01,37,3.10
2016,11,24,01,38,3.10
2016,11,24,01,39,3.20
2016,11,24,01,40,3.20
2016,11,24,01,41,3.20
2016,11,24,01,42,3.20
2016,11,24,01,43,3.20
2016,11,24,01,44,3.30
2016,11,24,01,45,3.30
2016,11,24,01,46,3.30
2016,11,24,01,47,3.30
2016,11,24,01,48,3.30
2016,11,24,01,49,3.30
2016,11,24,01,50,3.30
2016,11,24,01,51,3.30
2016,11,24,01,52,3.30
2016,11,24,01,53,3.30
2016,11,24,01,54,3.30
2016,11,24,01,55,3.30
2016,11,24,01,56,3.30
2016,11,24,01,57,3.30
2016,11,24,01,58,3.30
2016,11,24,01,59,3.30
2016,11,24,02,00,3.20
2016,11,24,02,01,3.20
2016,11,24,02,02,3.20
2016,11,24,02,03,3.20
2016,11,24,02,04,3.10
2016,11,24,02,05,3.10
2016,11,24,02,06,3.00
2016,11,24,02,07,3.00
2016,11,24,02,08,3.00
2016,11,24,02,09,2.90
2016,11,24,02,10,2.90
2016,11,24,02,11,2.90
2016,11,24,02,12,2.90
2016,11,24,02,13,2.90
2016,11,24,02,14,2.90
2016,11,24,02,15,2.90
2016,11,24,02,16,2.90
2016,11,24,02,17,2.90
2016,11,24,02,18,2.90
2016,11,24,02,19,2.90
2016,11,24,02,20,2.90
2016,11,24,02,21,2.90
2016,11,24,02,22,2.90
2016,11,24,02,23,2.90
2016,11,24,02,24,2.90
2016,11,24,02,25,2.90
2016,11,24,02,26,2.90
2016,11,24,02,27,2.90
2016,11,24,02,28,2.90
2016,11,24,02,29,2.90
2016,11,24,02,30,2.90
2016,11,24,02,31,2.90
2016,11,24,02,32,2.90
2016,11,24,02,33,2.90
2016,11,24,02,34,2.90
2016,11,24,02,35,2.90
2016,11,24,02,36,2.90
2016,11,24,02,37,2.80
2016,11,24,02,38,2.80
2016,11,24,02,39,2.80
2016,11,24,02,40,2.80
2016,11,24,02,41,2.80
2016,11,24,02,42,2.80
2016,11,24,02,43,2.80
2016,11,24,02,44,2.80
2016,11,24,02,45,2.80
2016,11,24,02,46,2.80
2016,11,24,02,47,2.80
2016,11,24,02,48,2.80
2016,11,24,02,49,2.80
2016,11,24,02,50,2.80
2016,11,24,02,51,2.80
2016,11,24,02,52,2.80
2016,11,24,02,53,2.80
2016,11,24,02,54,2.80
2016,11,24,02,55,2.80
2016,11,24,02,56,2.80
2016,11,24,02,57,2.80
2016,11,24,02,58,2.80
2016,11,24,02,59,2.80
2016,11,24,03,00,2.80
2016,11,24,03,01,2.80
2016,11,24,03,02,2.80
2016,11,24,03,03,2.80
2016,11,24,03,04,2.80
2016,11,24,03,05,2.80
2016,11,24,03,06,2.80
2016,11,24,03,07,2.80
2016,11,24,03,08,2.80
2016,11,24,03,09,2.80
2016,11,24,03,10,2.80
2016,11,24,03,11,2.80
2016,11,24,03,12,2.80
2016,11,24,03,13,2.80
2016,11,24,03,14,2.80
2016,11,24,03,15,2.80
2016,11,24,03,16,2.80
2016,11,24,03,17,2.80
2016,11,24,03,18,2.80
2016,11,24,03,19,2.80
2016,11,24,03,20,2.80
2016,11,24,03,21,2.80
2016,11,24,03,22,2.80
2016,11,24,03,23,2.80
2016,11,24,03,24,2.80
2016,11,24,03,25,2.80
2016,11,24,03,26,2.80
2016,11,24,03,27,2.80
2016,11,24,03,28,2.90
2016,11,24,03,29,2.80
2016,11,24,03,30,2.80
2016,11,24,03,31,2.80
2016,11,24,03,32,2.80
2016,11,24,03,33,2.80
2016,11,24,03,34,2.80
2016,11,24,03,35,2.80
2016,11,24,03,36,2.80
2016,11,24,03,37,2.80
2016,11,24,03,38,2.80
2016,11,24,03,39,2.80
2016,11,24,03,40,2.80
2016,11,24,03,41,2.80
2016,11,24,03,42,2.80
2016,11,24,03,43,2.80
2016,11,24,03,44,2.80
2016,11,24,03,45,2.80
2016,11,24,03,46,2.80
2016,11,24,03,47,2.80
2016,11,24,03,48,2.80
2016,11,24,03,49,2.80
2016,11,24,03,50,2.80
2016,11,24,03,51,2.80
2016,11,24,03,52,2.80
2016,11,24,03,53,2.80
2016,11,24,03,54,2.80
2016,11,24,03,55,2.80
2016,11,24,03,56,2.80
2016,11,24,03,57,2.80
2016,11,24,03,58,2.80
2016,11,24,03,59,2.80
2016,11,24,04,00,2.80
2016,11,24,04,01,2.80
2016,11,24,04,02,2.80
2016,11,24,04,03,2.80
2016,11,24,04,04,2.80
2016,11,24,04,05,2.80
2016,11,24,04,06,2.80
2016,11,24,04,07,2.80
2016,11,24,04,08,2.80
2016,11,24,04,09,2.80
2016,11,24,04,10,2.80
2016,11,24,04,11,2.80
2016,11,24,04,12,2.80
2016,11,24,04,13,2.70
2016,11,24,04,14,2.70
2016,11,24,04,15,2.70
2016,11,24,04,16,2.70
2016,11,24,04,17,2.70
2016,11,24,04,18,2.70
2016,11,24,04,19,2.70
2016,11,24,04,20,2.70
2016,11,24,04,21,2.70
2016,11,24,04,22,2.70
2016,11,24,04,23,2.70
2016,11,24,04,24,2.70
2016,11,24,04,25,2.70
2016,11,24,04,26,2.70
2016,11,24,04,27,2.70
2016,11,24,04,28,2.70
2016,11,24,04,29,2.70
2016,11,24,04,30,2.70
2016,11,24,04,31,2.70
2016,11,24,04,32,2.70
2016,11,24,04,33,2.70
2016,11,24,04,34,2.70
2016,11,24,04,35,2.70
2016,11,24,04,36,2.70
2016,11,24,04,37,2.70
2016,11,24,04,38,2.70
2016,11,24,04,39,2.70
2016,11,24,04,40,2.70
2016,11,24,04,41,2.70
2016,11,24,04,42,2.70
2016,11,24,04,43,2.70
2016,11,24,04,44,2.70
2016,11,24,04,45,2.70
2016,11,24,04,46,2.70
2016,11,24,04,47,2.70
2016,11,24,04,48,2.70
2016,11,24,04,49,2.70
2016,11,24,04,50,2.70
2016,11,24,04,51,2.70
2016,11,24,04,52,2.70
2016,11,24,04,53,2.70
2016,11,24,04,54,2.70
2016,11,24,04,55,2.70
2016,11,24,04,56,2.70
2016,11,24,04,57,2.70
2016,11,24,04,58,2.70
2016,11,24,04,59,2.70
2016,11,24,05,00,2.70
2016,11,24,05,01,2.70
2016,11,24,05,02,2.70
2016,11,24,05,03,2.70
2016,11,24,05,04,2.70
2016,11,24,05,05,2.70
2016,11,24,05,06,2.70
2016,11,24,05,07,2.70
2016,11,24,05,08,2.70
2016,11,24,05,09,2.70
2016,11,24,05,10,2.70
2016,11,24,05,11,2.70
2016,11,24,05,12,2.70
2016,11,24,05,13,2.70
2016,11,24,05,14,2.70
2016,11,24,05,15,2.70
2016,11,24,05,16,2.70
2016,11,24,05,17,2.70
2016,11,24,05,18,2.70
2016,11,24,05,19,2.70
2016,11,24,05,20,2.70
2016,11,24,05,21,2.80
2016,11,24,05,22,2.80
2016,11,24,05,23,2.80
2016,11,24,05,24,2.70
2016,11,24,05,25,2.70
2016,11,24,05,26,2.80
2016,11,24,05,27,2.80
2016,11,24,05,28,2.80
2016,11,24,05,29,2.80
2016,11,24,05,30,2.80
2016,11,24,05,31,2.80
2016,11,24,05,32,2.80
2016,11,24,05,33,2.80
2016,11,24,05,34,2.80
2016,11,24,05,35,2.80
2016,11,24,05,36,2.80
2016,11,24,05,37,2.80
2016,11,24,05,38,2.80
2016,11,24,05,39,2.80
2016,11,24,05,40,2.80
2016,11,24,05,41,2.80
2016,11,24,05,42,2.80
2016,11,24,05,43,2.80
2016,11,24,05,44,2.80
2016,11,24,05,45,2.80
2016,11,24,05,46,2.80
2016,11,24,05,47,2.80
2016,11,24,05,48,2.80
2016,11,24,05,49,2.80
2016,11,24,05,50,2.80
2016,11,24,05,51,2.80
2016,11,24,05,52,2.80
2016,11,24,05,53,2.80
2016,11,24,05,54,2.80
2016,11,24,05,55,2.80
2016,11,24,05,56,2.80
2016,11,24,05,57,2.80
2016,11,24,05,58,2.80
2016,11,24,05,59,2.80
2016,11,24,06,00,2.80
2016,11,24,06,01,2.80
2016,11,24,06,02,2.80
2016,11,24,06,03,2.80
2016,11,24,06,04,2.80
2016,11,24,06,05,2.80
2016,11,24,06,06,2.80
2016,11,24,06,07,2.90
2016,11,24,06,08,2.90
2016,11,24,06,09,2.90
2016,11,24,06,10,2.90
2016,11,24,06,11,2.90
2016,11,24,06,12,2.90
2016,11,24,06,13,2.90
2016,11,24,06,14,2.90
2016,11,24,06,15,2.90
2016,11,24,06,16,2.90
2016,11,24,06,17,2.90
2016,11,24,06,18,3.00
2016,11,24,06,19,3.00
2016,11,24,06,20,3.00
2016,11,24,06,21,3.00
2016,11,24,06,22,3.00
2016,11,24,06,23,3.00
2016,11,24,06,24,3.00
2016,11,24,06,25,3.00
2016,11,24,06,26,3.00
2016,11,24,06,27,3.10
2016,11,24,06,28,3.10
2016,11,24,06,29,3.20
2016,11,24,06,30,3.20
2016,11,24,06,31,3.20
2016,11,24,06,32,3.20
2016,11,24,06,33,3.30
2016,11,24,06,34,3.30
2016,11,24,06,35,3.30
2016,11,24,06,36,3.40
2016,11,24,06,37,3.40
2016,11,24,06,38,3.40
2016,11,24,06,39,3.40
2016,11,24,06,40,3.50
2016,11,24,06,41,3.50
2016,11,24,06,42,3.50
2016,11,24,06,43,3.50
2016,11,24,06,44,3.50
2016,11,24,06,45,3.60
2016,11,24,06,46,3.60
2016,11,24,06,47,3.60
2016,11,24,06,48,3.60
2016,11,24,06,49,3.60
2016,11,24,06,50,3.60
2016,11,24,06,51,3.60
2016,11,24,06,52,3.70
2016,11,24,06,53,3.70
2016,11,24,06,54,3.60
2016,11,24,06,55,3.60
2016,11,24,06,56,3.60
2016,11,24,06,57,3.60
2016,11,24,06,58,3.60
2016,11,24,06,59,3.60
2016,11,24,07,00,3.60
2016,11,24,07,01,3.50
2016,11,24,07,02,3.50
2016,11,24,07,03,3.50
2016,11,24,07,04,3.50
2016,11,24,07,05,3.50
2016,11,24,07,06,3.50
2016,11,24,07,07,3.50
2016,11,24,07,08,3.40
2016,11,24,07,09,3.40
2016,11,24,07,10,3.40
2016,11,24,07,11,3.40
2016,11,24,07,12,3.40
2016,11,24,07,13,3.40
2016,11,24,07,14,3.30
2016,11,24,07,15,3.30
2016,11,24,07,16,3.30
2016,11,24,07,17,3.30
2016,11,24,07,18,3.30
2016,11,24,07,19,3.30
2016,11,24,07,20,3.40
2016,11,24,07,21,3.40
2016,11,24,07,22,3.40
2016,11,24,07,23,3.40
2016,11,24,07,24,3.40
2016,11,24,07,25,3.40
2016,11,24,07,26,3.40
2016,11,24,07,27,3.40
2016,11,24,07,28,3.40
2016,11,24,07,29,3.40
2016,11,24,07,30,3.40
2016,11,24,07,31,3.40
2016,11,24,07,32,3.40
2016,11,24,07,33,3.40
2016,11,24,07,34,3.40
2016,11,24,07,35,3.40
2016,11,24,07,36,3.40
2016,11,24,07,37,3.40
2016,11,24,07,38,3.40
2016,11,24,07,39,3.40
2016,11,24,07,40,3.40
2016,11,24,07,41,3.30
2016,11,24,07,42,3.40
2016,11,24,07,43,3.30
2016,11,24,07,44,3.40
2016,11,24,07,45,3.40
2016,11,24,07,46,3.40
2016,11,24,07,47,3.40
2016,11,24,07,48,3.40
2016,11,24,07,49,3.40
2016,11,24,07,50,3.40
2016,11,24,07,51,3.40
2016,11,24,07,52,3.40
2016,11,24,07,53,3.40
2016,11,24,07,54,3.40
2016,11,24,07,55,3.40
2016,11,24,07,56,3.40
2016,11,24,07,57,3.50
2016,11,24,07,58,3.40
2016,11,24,07,59,3.40
2016,11,24,08,00,3.40
2016,11,24,08,01,3.40
2016,11,24,08,02,3.40
2016,11,24,08,03,3.40
2016,11,24,08,04,3.40
2016,11,24,08,05,3.40
2016,11,24,08,06,3.40
2016,11,24,08,07,3.40
2016,11,24,08,08,3.40
2016,11,24,08,09,3.40
2016,11,24,08,10,3.40
2016,11,24,08,11,3.40
2016,11,24,08,12,3.40
2016,11,24,08,13,3.40
2016,11,24,08,14,3.30
2016,11,24,08,15,3.30
2016,11,24,08,16,3.30
2016,11,24,08,17,3.30
2016,11,24,08,18,3.30
2016,11,24,08,19,3.30
2016,11,24,08,20,3.30
2016,11,24,08,21,3.30
2016,11,24,08,22,3.40
2016,11,24,08,23,3.40
2016,11,24,08,24,3.40
2016,11,24,08,25,3.40
2016,11,24,08,26,3.40
2016,11,24,08,27,3.40
2016,11,24,08,28,3.40
2016,11,24,08,29,3.40
2016,11,24,08,30,3.40
2016,11,24,08,31,3.40
2016,11,24,08,32,3.40
2016,11,24,08,33,3.40
2016,11,24,08,34,3.40
2016,11,24,08,35,3.40
2016,11,24,08,36,3.40
2016,11,24,08,37,3.40
2016,11,24,08,38,3.40
2016,11,24,08,39,3.40
2016,11,24,08,40,3.40
2016,11,24,08,41,3.40
2016,11,24,08,42,3.40
2016,11,24,08,43,3.40
2016,11,24,08,44,3.40
2016,11,24,08,45,3.40
2016,11,24,08,46,3.40
2016,11,24,08,47,3.40
2016,11,24,08,48,3.40
2016,11,24,08,49,3.40
2016,11,24,08,50,3.40
2016,11,24,08,51,3.40
2016,11,24,08,52,3.40
2016,11,24,08,53,3.40
2016,11,24,08,54,3.40
2016,11,24,08,55,3.40
2016,11,24,08,56,3.40
2016,11,24,08,57,3.40
2016,11,24,08,58,3.40
2016,11,24,08,59,3.40
2016,11,24,09,00,3.40
2016,11,24,09,01,3.40
2016,11,24,09,02,3.40
2016,11,24,09,03,3.40
2016,11,24,09,04,3.40
2016,11,24,09,05,3.40
2016,11,24,09,06,3.40
2016,11,24,09,07,3.40
2016,11,24,09,08,3.40
2016,11,24,09,09,3.40
2016,11,24,09,10,3.40
2016,11,24,09,11,3.40
2016,11,24,09,12,3.40
2016,11,24,09,13,3.40
2016,11,24,09,14,3.40
2016,11,24,09,15,3.40
2016,11,24,09,16,3.40
2016,11,24,09,17,3.40
2016,11,24,09,18,3.40
2016,11,24,09,19,3.40
2016,11,24,09,20,3.40
2016,11,24,09,21,3.40
2016,11,24,09,22,3.40
2016,11,24,09,23,3.40
2016,11,24,09,24,3.40
2016,11,24,09,25,3.40
2016,11,24,09,26,3.40
2016,11,24,09,27,3.50
2016,11,24,09,28,3.40
2016,11,24,09,29,3.50
2016,11,24,09,30,3.50
2016,11,24,09,31,3.50
2016,11,24,09,32,3.60
2016,11,24,09,33,3.60
2016,11,24,09,34,3.60
2016,11,24,09,35,3.70
2016,11,24,09,36,3.70
2016,11,24,09,37,3.70
2016,11,24,09,38,3.70
2016,11,24,09,39,3.70
2016,11,24,09,40,3.70
2016,11,24,09,41,3.70
2016,11,24,09,42,3.70
2016,11,24,09,43,3.70
2016,11,24,09,44,3.70
2016,11,24,09,45,3.70
2016,11,24,09,46,3.70
2016,11,24,11,10,3.40
2016,11,24,11,11,3.40
2016,11,24,11,12,3.40
2016,11,24,11,13,3.40
2016,11,24,11,14,3.40
2016,11,24,11,15,3.40
2016,11,24,11,16,3.40
2016,11,24,11,17,3.30
2016,11,24,11,18,3.30
2016,11,24,11,19,3.30
2016,11,24,11,20,3.30
2016,11,24,11,21,3.30
2016,11,24,11,22,3.30
2016,11,24,11,23,3.30
2016,11,24,11,24,3.20
2016,11,24,11,25,3.20
2016,11,24,11,26,3.30
2016,11,24,11,27,3.30
2016,11,24,11,28,3.30
2016,11,24,11,29,3.30
2016,11,24,11,30,3.30
2016,11,24,11,31,3.30
2016,11,24,11,32,3.30
2016,11,24,11,33,3.30
2016,11,24,11,34,3.30
2016,11,24,11,35,3.30
2016,11,24,11,36,3.30
2016,11,24,11,37,3.30
2016,11,24,11,38,3.30
2016,11,24,11,39,3.30
2016,11,24,11,40,3.30
2016,11,24,11,41,3.30
2016,11,24,11,42,3.30
2016,11,24,11,43,3.30
2016,11,24,11,44,3.30
2016,11,24,11,45,3.30
2016,11,24,11,46,3.30
2016,11,24,11,47,3.30
2016,11,24,11,48,3.30
2016,11,24,11,49,3.30
2016,11,24,11,50,3.30
2016,11,24,11,51,3.30
2016,11,24,11,52,3.30
2016,11,24,11,53,3.30
2016,11,24,11,54,3.30
2016,11,24,11,55,3.30
2016,11,24,11,56,3.30
2016,11,24,11,57,3.30
2016,11,24,11,58,3.30
2016,11,24,11,59,3.30
2016,11,24,12,00,3.20
2016,11,24,12,01,3.20
2016,11,24,12,02,3.20
2016,11,24,12,03,3.20
2016,11,24,12,04,3.20
2016,11,24,12,05,3.20
2016,11,24,12,06,3.20
2016,11,24,12,07,3.20
2016,11,24,12,08,3.20
2016,11,24,12,09,3.20
2016,11,24,12,10,3.20
2016,11,24,12,11,3.20
2016,11,24,12,12,3.20
2016,11,24,12,13,3.20
2016,11,24,12,14,3.20
2016,11,24,12,15,3.20
2016,11,24,12,16,3.20
2016,11,24,12,17,3.20
2016,11,24,12,18,3.20
2016,11,24,12,19,3.20
2016,11,24,12,20,3.20
2016,11,24,12,21,3.20
2016,11,24,12,22,3.20
2016,11,24,12,23,3.20
2016,11,24,12,24,3.20
2016,11,24,12,25,3.20
2016,11,24,12,26,3.20
2016,11,24,12,27,3.20
2016,11,24,12,28,3.20
2016,11,24,12,29,3.20
2016,11,24,12,30,3.20
2016,11,24,12,31,3.20
2016,11,24,12,32,3.20
2016,11,24,12,33,3.20
2016,11,24,12,34,3.20
2016,11,24,12,35,3.20
2016,11,24,12,36,3.20
2016,11,24,12,37,3.20
2016,11,24,12,38,3.20
2016,11,24,12,39,3.20
2016,11,24,12,40,3.10
2016,11,24,12,41,3.10
2016,11,24,12,42,3.10
2016,11,24,12,43,3.10
2016,11,24,12,44,3.10
2016,11,24,12,45,3.10
2016,11,24,12,46,3.10
2016,11,24,12,47,3.10
2016,11,24,12,48,3.10
2016,11,24,12,49,3.10
2016,11,24,12,50,3.00
2016,11,24,12,51,3.00
2016,11,24,12,52,3.10
2016,11,24,12,53,3.10
2016,11,24,12,54,3.10
2016,11,24,12,55,3.10
2016,11,24,12,56,3.20
2016,11,24,12,57,3.20
2016,11,24,12,58,3.20
2016,11,24,12,59,3.30
2016,11,24,13,00,3.30
2016,11,24,13,01,3.40
2016,11,24,13,02,3.50
2016,11,24,13,03,3.50
2016,11,24,13,04,3.60
2016,11,24,13,05,3.50
2016,11,24,13,06,3.50
2016,11,24,13,07,3.50
2016,11,24,13,08,3.50
2016,11,24,13,09,3.50
2016,11,24,13,10,3.50
2016,11,24,13,11,3.50
2016,11,24,13,12,3.50
2016,11,24,13,13,3.50
2016,11,24,13,14,3.50
2016,11,24,13,15,3.40
2016,11,24,13,16,3.40
2016,11,24,13,17,3.40
2016,11,24,13,18,3.40
2016,11,24,13,19,3.40
2016,11,24,13,20,3.50
2016,11,24,13,21,3.50
2016,11,24,13,22,3.50
2016,11,24,13,23,3.50
2016,11,24,13,24,3.50
2016,11,24,13,25,3.50
2016,11,24,13,26,3.60
2016,11,24,13,27,3.60
2016,11,24,13,28,3.60
2016,11,24,13,29,3.60
2016,11,24,13,30,3.60
2016,11,24,13,31,3.60
2016,11,24,13,32,3.60
2016,11,24,13,33,3.60
2016,11,24,13,34,3.70
2016,11,24,13,35,3.70
2016,11,24,13,36,3.70
2016,11,24,13,37,3.80
2016,11,24,13,38,3.80
2016,11,24,13,39,3.80
2016,11,24,13,40,3.80
2016,11,24,13,41,3.80
2016,11,24,13,42,3.90
2016,11,24,13,43,3.90
2016,11,24,13,44,3.90
2016,11,24,13,45,3.90
2016,11,24,13,46,3.90
2016,11,24,13,47,3.80
2016,11,24,13,48,3.80
2016,11,24,13,49,3.80
2016,11,24,13,50,3.80
2016,11,24,13,51,3.80
2016,11,24,13,52,3.80
2016,11,24,13,53,3.80
2016,11,24,13,54,3.80
2016,11,24,13,55,3.80
2016,11,24,13,56,3.80
2016,11,24,13,57,3.80
2016,11,24,13,58,3.80
2016,11,24,21,03,3.30
2016,11,24,21,04,3.30
2016,11,24,21,05,3.30
2016,11,24,21,06,3.30
2016,11,24,21,07,3.30
2016,11,24,21,08,3.30
2016,11,24,21,09,3.30
2016,11,24,21,10,3.30
2016,11,24,21,11,3.30
2016,11,24,21,12,3.20
2016,11,24,21,13,3.20
2016,11,24,21,14,3.20
2016,11,24,21,15,3.20
2016,11,24,21,16,3.20
2016,11,24,21,17,3.20
2016,11,24,21,18,3.20
2016,11,24,21,19,3.20
2016,11,24,21,20,3.20
2016,11,24,21,21,3.20
2016,11,24,21,22,3.20
2016,11,24,21,38,3.30
2016,11,24,21,39,3.30
2016,11,24,21,40,3.30
2016,11,24,21,41,3.30
2016,11,24,21,42,3.30
2016,11,24,21,43,3.30
2016,11,24,21,44,3.30
2016,11,24,21,45,3.30
2016,11,24,21,46,3.30
2016,11,24,21,47,3.30
2016,11,24,21,48,3.30
2016,11,24,21,49,3.30
2016,11,24,21,50,3.30
2016,11,24,21,51,3.30
2016,11,24,21,52,3.30
2016,11,24,21,53,3.30
2016,11,24,21,54,3.30
2016,11,24,21,55,3.30
2016,11,24,21,56,3.30
2016,11,24,21,57,3.30
2016,11,24,21,58,3.30
2016,11,24,21,59,3.20
2016,11,24,22,00,3.20
2016,11,24,22,01,3.20
2016,11,24,22,02,3.20
2016,11,24,22,03,3.20
2016,11,24,22,04,3.20
2016,11,24,22,05,3.20
2016,11,24,22,06,3.20
2016,11,24,22,07,3.20
2016,11,24,22,08,3.20
2016,11,24,22,09,3.20
2016,11,24,22,10,3.30
2016,11,24,22,11,3.20
2016,11,24,22,12,3.30
2016,11,24,22,13,3.30
2016,11,24,22,14,3.30
2016,11,24,22,15,3.30
2016,11,24,22,16,3.30
2016,11,24,22,17,3.30
2016,11,24,22,18,3.30
2016,11,24,22,19,3.30
2016,11,24,22,20,3.30
2016,11,24,22,21,3.30
2016,11,24,22,22,3.30
2016,11,24,22,23,3.30
2016,11,24,22,24,3.30
2016,11,24,22,25,3.30
2016,11,24,22,26,3.30
2016,11,24,22,27,3.30
2016,11,24,22,28,3.30
2016,11,24,22,29,3.30
2016,11,24,22,30,3.30
2016,11,24,22,31,3.30
2016,11,24,22,32,3.30
2016,11,24,22,33,3.30
2016,11,24,22,34,3.30
2016,11,24,22,35,3.30
2016,11,24,22,36,3.30
2016,11,24,22,37,3.30
2016,11,24,22,38,3.30
2016,11,24,22,39,3.30
2016,11,24,22,40,3.30
2016,11,24,22,41,3.30
2016,11,24,22,42,3.20
2016,11,24,22,43,3.20
2016,11,24,22,44,3.20
2016,11,24,22,45,3.20
2016,11,24,22,46,3.20
2016,11,24,22,47,3.20
2016,11,24,22,48,3.20
2016,11,24,22,49,3.20
2016,11,24,22,50,3.20
2016,11,24,22,51,3.20
2016,11,24,22,52,3.20
2016,11,24,22,53,3.20
2016,11,24,22,54,3.20
2016,11,24,22,55,3.20
2016,11,24,22,56,3.20
2016,11,24,22,57,3.20
2016,11,24,22,58,3.30
2016,11,24,22,59,3.20
2016,11,24,23,00,3.20
2016,11,24,23,01,3.20
2016,11,24,23,02,3.20
2016,11,24,23,03,3.20
2016,11,24,23,04,3.20
2016,11,24,23,05,3.20
2016,11,24,23,06,3.20
2016,11,24,23,07,3.20
2016,11,24,23,08,3.20
2016,11,24,23,09,3.20
2016,11,24,23,10,3.30
2016,11,24,23,11,3.30
2016,11,24,23,12,3.30
2016,11,24,23,13,3.30
2016,11,24,23,14,3.30
2016,11,24,23,15,3.30
2016,11,24,23,16,3.30
2016,11,24,23,17,3.30
2016,11,24,23,18,3.30
2016,11,24,23,19,3.30
2016,11,24,23,20,3.30
2016,11,24,23,21,3.30
2016,11,24,23,22,3.30
2016,11,24,23,23,3.30
2016,11,24,23,24,3.30
2016,11,24,23,25,3.30
2016,11,24,23,26,3.30
2016,11,24,23,27,3.30
2016,11,24,23,28,3.30
2016,11,24,23,29,3.30
2016,11,24,23,30,3.20
2016,11,24,23,31,3.30
2016,11,24,23,32,3.30
2016,11,24,23,33,3.30
2016,11,24,23,34,3.30
2016,11,24,23,35,3.30
2016,11,24,23,36,3.30
2016,11,24,23,37,3.30
2016,11,24,23,38,3.30
2016,11,24,23,39,3.30
2016,11,24,23,40,3.30
2016,11,24,23,41,3.30
2016,11,24,23,42,3.30
2016,11,24,23,43,3.30
2016,11,24,23,44,3.20
2016,11,24,23,45,3.20
2016,11,24,23,46,3.20
2016,11,24,23,47,3.20
2016,11,24,23,48,3.20
2016,11,24,23,49,3.20
2016,11,24,23,50,3.20
2016,11,24,23,51,3.20
2016,11,24,23,52,3.20
2016,11,24,23,53,3.20
2016,11,24,23,54,3.20
2016,11,24,23,55,3.20
2016,11,24,23,56,3.20
2016,11,24,23,57,3.20
2016,11,24,23,58,3.20
2016,11,24,23,59,3.20
